Location: Unspecified
(0.0000°N, 0.0000°E)
Time: 11:25:37
(UTC+00:00)

Vanguard 1 - Pass Details

Date: 06 October 2022
Orbit: 650 x 3831 km, 34.2° (Epoch: 03 December)

Event Time Altitude Azimuth Distance (km) Brightness Sun altitude
Rises 04:47:59 0° 209° (SSW) 5,388 13.6 -15.0°
Reaches altitude 10° 04:53:16 10° 190° (S) 4,979 13.6 -13.7°
Maximum altitude 05:02:29 18° 152° (SSE) 5,212 14.2 -11.4°
Drops below altitude 10° 05:14:21 10° 117° (ESE) 6,611 15.6 -8.4°
Sets 05:23:26 0° 100° (E) 7,929 17.3 -6.2°
